Location: OLV Amersfoort
(52.1552°N, 5.3872°E)
Time: 13:08:08
(UTC+02:00)

ISS - Visible Passes

Search period start: 26 May 2017 00:00
Search period end: 05 June 2017 00:00
Orbit: 402 x 408 km, 51.6° (Epoch: 26 May)

Date Brightness Start Highest point End Pass type
(mag) Time Alt. Az. Time Alt. Az. Time Alt. Az.
26 May -3.9 00:13:18 10° WSW 00:16:36 67° SSE 00:19:52 10° E visible
26 May -4.0 01:49:44 10° W 01:53:02 79° S 01:56:20 10° E visible
26 May -3.2 03:26:18 10° W 03:29:20 34° SSW 03:32:20 10° SE visible
26 May -3.7 23:21:21 10° WSW 23:24:35 53° SSE 23:27:48 10° E visible
27 May -4.0 00:57:41 10° W 01:01:00 84° S 01:04:17 10° E visible
27 May -3.7 02:34:11 10° W 02:37:23 48° SSW 02:40:34 10° SE visible
27 May -2.0 04:11:32 10° WSW 04:13:19 14° SW 04:15:05 10° S visible
27 May -3.3 22:29:30 10° SW 22:32:36 38° SSE 22:35:42 10° E visible
28 May -3.9 00:05:37 10° W 00:08:56 82° S 00:12:14 10° E visible
28 May -3.9 01:42:06 10° W 01:45:23 63° SSW 01:47:24 21° ESE visible
28 May -1.9 03:18:55 10° W 03:19:56 15° WSW 03:19:56 15° WSW visible
28 May -3.9 23:13:34 10° WSW 23:16:51 72° S 23:20:09 10° E visible
29 May -4.0 00:50:01 10° W 00:53:19 76° S 00:55:58 15° ESE visible
29 May -2.5 02:26:38 10° W 02:28:33 25° WSW 02:28:33 25° WSW visible
29 May -3.9 23:57:56 10° W 00:01:14 83° S 00:04:32 10° E visible
30 May -3.5 01:34:27 10° W 01:37:36 42° SSW 01:37:40 42° SSW visible
30 May -3.9 23:05:49 10° W 23:09:08 83° S 23:12:27 10° E visible
31 May -3.8 00:42:19 10° W 00:45:34 57° SSW 00:46:57 30° SE visible
31 May -1.4 02:19:16 10° W 02:19:34 11° WSW 02:19:34 11° WSW visible
31 May -3.9 23:50:11 10° W 23:53:29 71° S 23:56:19 13° ESE visible
01 Jun -2.4 01:26:51 10° W 01:28:57 24° SW 01:28:57 24° SW visible
01 Jun -3.9 22:58:04 10° W 23:01:22 81° S 23:04:40 10° E visible
02 Jun -3.2 00:34:35 10° W 00:37:41 37° SSW 00:38:23 33° S visible
02 Jun -3.6 23:42:24 10° W 23:45:38 51° SSW 23:47:51 18° SE visible
03 Jun -1.6 01:19:33 10° WSW 01:20:29 13° WSW 01:20:29 13° WSW visible
03 Jun -3.8 22:50:14 10° W 22:53:32 66° SSW 22:56:48 10° ESE visible
04 Jun -2.5 00:26:59 10° W 00:29:40 23° SSW 00:29:59 23° SSW visible
04 Jun -2.9 23:34:38 10° W 23:37:39 33° SSW 23:39:31 18° SSE visible
